Challis, ID

8:04 PM MDT on August 28, 2016 (GMT -0600)
Challis

Weather History for KLLJ - January, 2013

Change the Weather History Date:

Saturday, January 26, 2013

  Actual Average Record
Temperature  
Mean Temperature 27 °F 20 °F  
Max Temperature 40 °F 31 °F 52 °F (1901)
Min Temperature 13 °F 10 °F -22 °F (1957)
Degree Days  
Heating Degree Days 38 45  
Month to date heating degree days 1366 1204  
Since 1 July heating degree days 4432 4700  
Cooling Degree Days 0 0  
Month to date cooling degree days 0 0  
Year to date cooling degree days 0 0  
Moisture  
Dew Point 23 °F    
Average Humidity 78    
Maximum Humidity 91    
Minimum Humidity 64    
Precipitation  
Precipitation T in 0.02 in 0.30 in (1969)
Month to date precipitation 0.21 0.45  
Year to date precipitation 0.21 0.45  
Sea Level Pressure  
Sea Level Pressure 29.91 in    
Wind  
Wind Speed 3 mph (NNW)    
Max Wind Speed 16 mph    
Max Gust Speed 21 mph    
Visibility 10 miles    
Events      
T = Trace of Precipitation, MM = Missing Value Source: NWS Daily Summary

Daily Weather History Graph

Daily Weather History Graph

Search for Another Location

Airport or City:

Trip Planner

Search our weather history database for the weather conditions in past years. The results will help you decide how hot, cold, wet, or windy it might be!

Date:

Astronomy

Jan. 26, 2013 Rise Set
Actual Time 8:01 AM MST 5:38 PM MST
Civil Twilight 7:29 AM MST 6:09 PM MST
Nautical Twilight 6:54 AM MST 6:44 PM MST
Astronomical Twilight 6:20 AM MST 7:19 PM MST
Moon 5:39 PM MST (1/26) 7:20 AM MST (1/26)
Length of Visible Light 10h 39m
Length of Day
9h 36m
Full, 100% of the Moon is Illuminated
Jan 26
Full
Jan 26
Full
Feb 3
Last Quarter
Feb 10
New
Feb 17
First Quarter

Hourly Weather History & Observations

Time (MST) Temp. Windchill Dew Point Humidity Pressure Visibility Wind Dir Wind Speed Gust Speed Precip Events Conditions
12:55 AM 24.1 °F 19.7 °F 19.9 °F 84% 30.08 in 10.0 mi NNW 3.5 mph - N/A   Scattered Clouds
1:28 AM 26.6 °F 20.0 °F 21.2 °F 80% 29.99 in 10.0 mi NNW 5.8 mph - N/A   Mostly Cloudy
1:48 AM 26.6 °F 22.6 °F 21.2 °F 80% 29.98 in 10.0 mi NNE 3.5 mph - N/A   Overcast
1:55 AM 27.0 °F - 21.0 °F 78% 30.05 in 10.0 mi Calm Calm - N/A   Overcast
2:55 AM 26.1 °F 20.5 °F 21.0 °F 81% 30.04 in 10.0 mi South 4.6 mph - N/A   Overcast
3:55 AM 27.0 °F - 21.9 °F 81% 30.03 in 10.0 mi Calm Calm - N/A   Overcast
4:55 AM 26.1 °F 19.4 °F 21.0 °F 81% 30.01 in 10.0 mi NW 5.8 mph - N/A   Mostly Cloudy
5:55 AM 21.9 °F 17.2 °F 18.0 °F 85% 30.01 in 10.0 mi Variable 3.5 mph - N/A   Scattered Clouds
6:55 AM 19.9 °F 14.9 °F 17.1 °F 89% 30.03 in 10.0 mi SSW 3.5 mph - N/A   Clear
7:55 AM 15.1 °F - 12.0 °F 88% 30.03 in 10.0 mi Calm Calm - N/A   Clear
8:55 AM 19.9 °F 14.9 °F 17.1 °F 89% 30.00 in 8.0 mi East 3.5 mph - N/A   Mostly Cloudy
9:08 AM 19.4 °F - 17.6 °F 93% 29.89 in 8.0 mi Calm Calm - N/A   Mostly Cloudy
9:55 AM 26.1 °F 21.9 °F 21.9 °F 84% 29.98 in 10.0 mi South 3.5 mph - N/A   Overcast
10:55 AM 28.9 °F - 23.0 °F 78% 29.95 in 10.0 mi Calm Calm - N/A   Overcast
11:55 AM 32.0 °F 28.7 °F 24.1 °F 73% 29.90 in 10.0 mi WNW 3.5 mph - N/A   Overcast
12:55 PM 35.1 °F - 25.0 °F 67% 29.86 in 10.0 mi Calm Calm - N/A   Clear
1:55 PM 36.0 °F 33.3 °F 26.1 °F 67% 29.80 in 10.0 mi NNW 3.5 mph - N/A   Mostly Cloudy
2:55 PM 37.9 °F - 27.0 °F 65% 29.78 in 10.0 mi Calm Calm - N/A   Partly Cloudy
3:55 PM 39.0 °F 35.7 °F 28.0 °F 65% 29.75 in 10.0 mi North 4.6 mph - N/A   Scattered Clouds
4:55 PM 37.0 °F - 28.0 °F 70% 29.75 in 10.0 mi Calm Calm - N/A   Overcast
5:55 PM 35.1 °F 32.2 °F 27.0 °F 72% 29.76 in 10.0 mi NNW 3.5 mph - 0.00 in   Overcast
6:55 PM 35.1 °F 30.1 °F 27.0 °F 72% 29.79 in 10.0 mi North 5.8 mph - N/A   Overcast
7:55 PM 34.0 °F 28.0 °F 26.1 °F 73% 29.81 in 10.0 mi NW 6.9 mph - N/A   Mostly Cloudy
8:55 PM 30.9 °F - 25.0 °F 79% 29.78 in 10.0 mi Calm Calm - N/A   Mostly Cloudy
9:55 PM 30.9 °F - 25.0 °F 79% 29.78 in 10.0 mi Calm Calm - N/A   Overcast
10:55 PM 32.0 °F 26.4 °F 28.0 °F 85% 29.80 in 10.0 mi NNW 5.8 mph - 0.00 in   Overcast
11:55 PM 32.0 °F 26.4 °F 27.0 °F 82% 29.81 in 10.0 mi NW 5.8 mph - N/A   Overcast